Address 0x4666280a2ccefe83e63744761e4ff60e00663ee0

 
Txn Hash Method
Block
From
To
Value [Txn Fee]
0x50885a9d95bd6f4f9fad259ef83858cb06fba1011c5acf5f5fa5db295e658bb5Transfer83050732021-06-15 1:20:13165 days 21 hrs ago0x4666280a2ccefe83e63744761e4ff60e00663ee0OUT0xf81b140e1459cd44ea0835e4d9e85a0a83b2344e18.364497724521056 BNB0.000105
0x288bb7cf46999147a82a163c71c6d9450d44c31a7d95fbca3e6a9b7b660613a9Swap Exact Token...83049702021-06-15 1:15:04165 days 21 hrs ago0x4666280a2ccefe83e63744761e4ff60e00663ee0OUT PancakeSwap: Router v20 BNB0.00103948
0xd5293ca95b18e7c666cf8e72fa9419aa54f954623c9056d1ae723d0ef6f31351Swap Exact Token...83049632021-06-15 1:14:43165 days 21 hrs ago0x4666280a2ccefe83e63744761e4ff60e00663ee0OUT PancakeSwap: Router v20 BNB0.00103954
0x146c3f0f0d604ec14ee4329a302f2249efe37c78c3b08975cb57598e4237be80Transfer80639562021-06-06 15:20:18174 days 7 hrs ago0x4666280a2ccefe83e63744761e4ff60e00663ee0OUT 0x74a6e371f95073005b3a5faf4a9e25ae30290f940 BNB0.00022408
0x4c98429ceba6ec82ebbf7ca3544c3145afe93cb2f81b6760d1f702e0d0acad7dTransfer80639402021-06-06 15:19:30174 days 7 hrs ago0x4666280a2ccefe83e63744761e4ff60e00663ee0OUT 0x74a6e371f95073005b3a5faf4a9e25ae30290f940 BNB0.000497085
0xd5bf08f1050fa62914655353daf1198730cb3eb5542f3971de6f2c95073c0d84Transfer80639312021-06-06 15:19:03174 days 7 hrs ago0x4666280a2ccefe83e63744761e4ff60e00663ee0OUT 0x74a6e371f95073005b3a5faf4a9e25ae30290f940 BNB0.00012768
0xee843d4cc74ae772be7d6dedaeb888d3dbffd9baa1e4f68872cbd10fe2757303Transfer80639152021-06-06 15:18:15174 days 7 hrs ago0x4666280a2ccefe83e63744761e4ff60e00663ee0OUT 0x74a6e371f95073005b3a5faf4a9e25ae30290f940 BNB0.000497085
0x8e297efad134d3bf3c9c7024d21a77154d6a19df9fde2c6a4f13ba46848a29aeTransfer80639002021-06-06 15:17:30174 days 7 hrs ago0x4666280a2ccefe83e63744761e4ff60e00663ee0OUT 0x74a6e371f95073005b3a5faf4a9e25ae30290f940 BNB0.00012768
0x24ecc6e1cf773db2b699191559bb72d7de2255567188b10f3cda40f2cb014eecTransfer80443682021-06-05 22:58:06175 days 10 mins ago0x4666280a2ccefe83e63744761e4ff60e00663ee0OUT 0x74a6e371f95073005b3a5faf4a9e25ae30290f940 BNB0.00022396
0x0062a163f253e01852737162e4f807bb13811267e1924cc45029f1c91184fcf0Transfer80438382021-06-05 22:31:36175 days 36 mins ago0x4666280a2ccefe83e63744761e4ff60e00663ee0OUT 0x74a6e371f95073005b3a5faf4a9e25ae30290f940 BNB0.00022396
0xac7b0aebebaa629fb8a7a14c1d3801dae1acd08a74fffbb94bb6bf668d9e979eTransfer80438182021-06-05 22:30:36175 days 37 mins ago0x4666280a2ccefe83e63744761e4ff60e00663ee0OUT 0x74a6e371f95073005b3a5faf4a9e25ae30290f940 BNB0.000571965
0x236d47a597cd9882cd106e54adcfa0c451f01f3d97c963eff40c35033b9f05e7Transfer80422792021-06-05 21:13:37175 days 1 hr ago0x4666280a2ccefe83e63744761e4ff60e00663ee0OUT 0x74a6e371f95073005b3a5faf4a9e25ae30290f940 BNB0.000496965
0xa781d977660ccdcbaa1558327064138d4d9107ec737ce0e385a9ade2d8eb8923Transfer80422662021-06-05 21:12:58175 days 1 hr ago0x4666280a2ccefe83e63744761e4ff60e00663ee0OUT 0x74a6e371f95073005b3a5faf4a9e25ae30290f940 BNB0.000571965
0xcbe5c7bc753ff69cd763b4ae0a72f8a7ba7ece7a1bc45c73a1dc0edf8be286dfTransfer80420412021-06-05 21:01:43175 days 2 hrs ago0x4666280a2ccefe83e63744761e4ff60e00663ee0OUT 0x74a6e371f95073005b3a5faf4a9e25ae30290f940 BNB0.00022396
0x1dc88d41f98bd0594c2a708a4a79d999052775fd5f2f3a0c10daed0431688673Transfer80420182021-06-05 21:00:34175 days 2 hrs ago0x4666280a2ccefe83e63744761e4ff60e00663ee0OUT 0x74a6e371f95073005b3a5faf4a9e25ae30290f940 BNB0.00012756
0xf70d338b5837dbeeadf32d7dd37c3c71906e9387a74f36ee28a7a61746535673Transfer80420092021-06-05 21:00:07175 days 2 hrs ago0x4666280a2ccefe83e63744761e4ff60e00663ee0OUT 0x74a6e371f95073005b3a5faf4a9e25ae30290f940 BNB0.00012756
0xfbca3a1ffdcfacc4b1716c00a6ea1e3b29ed7b73fc5dadb09b7c6fae6132e2d0Transfer80349062021-06-05 15:04:24175 days 8 hrs ago0x4666280a2ccefe83e63744761e4ff60e00663ee0OUT 0x74a6e371f95073005b3a5faf4a9e25ae30290f940 BNB0.001491255
0x0f5e5560cd8cc1d73b62db7c1cf0f0d62560c1dac531817d10aef3323e1817d8Transfer80348492021-06-05 15:01:33175 days 8 hrs ago0x4666280a2ccefe83e63744761e4ff60e00663ee0OUT 0x74a6e371f95073005b3a5faf4a9e25ae30290f940 BNB0.01080688
0x7dc0e01540e75f3f055f8e3eab6f15dc81d8160dbba70924bf890a0492675a02Transfer80348052021-06-05 14:59:21175 days 8 hrs ago0x4666280a2ccefe83e63744761e4ff60e00663ee0OUT 0x74a6e371f95073005b3a5faf4a9e25ae30290f940 BNB0.0012756
0x96578667b2ba6b3e02c850bd4194a716b6cef2af7b74f379c269d3a62a7d5649Transfer80347782021-06-05 14:58:00175 days 8 hrs ago0x4666280a2ccefe83e63744761e4ff60e00663ee0OUT 0x74a6e371f95073005b3a5faf4a9e25ae30290f940 BNB0.00012756
0xfaf2c1b31b64d7f358115b4cd4638b981dd3c6e8dfcb1e2874f1f1525bba34faTransfer79601882021-06-03 0:37:13177 days 22 hrs ago0x4666280a2ccefe83e63744761e4ff60e00663ee0OUT 0x74a6e371f95073005b3a5faf4a9e25ae30290f940 BNB0.000571965
0x710d4dfb0b3e799dac98d4506453f182d3dcd04d9216f7355034a0217c41c3c5Transfer79580442021-06-02 22:49:54178 days 18 mins ago0x4666280a2ccefe83e63744761e4ff60e00663ee0OUT 0xfd23407ac6553c5af353bcea5aa14691b24a8d0e0 BNB0.000402375
0xe2d5c7e4fdde83e72b0b6a18bec78bee7f56698a214956cc3e19e6085802f881Renounce Ownersh...79573122021-06-02 22:13:08178 days 55 mins ago0x4666280a2ccefe83e63744761e4ff60e00663ee0OUT 0x74a6e371f95073005b3a5faf4a9e25ae30290f940 BNB0.00007711
0x7dcf7c68f8306d30a24bf2698870f2040c982accd00ac4feebd276737404f55eTransfer79572612021-06-02 22:10:35178 days 57 mins ago0x4666280a2ccefe83e63744761e4ff60e00663ee0OUT PancakeSwap V2: CATBREAD 30 BNB0.000179775
0x38bce12c53d966fb5d149e680c96bc850519216b10bf4c12de3b5a1c58a72079Add Liquidity ET...79570542021-06-02 22:00:14178 days 1 hr ago0x4666280a2ccefe83e63744761e4ff60e00663ee0OUT PancakeSwap: Router v22 BNB0.001644675
[ Download CSV Export 
Latest 3 internal transactions
Parent Txn Hash Block From To Value
0x288bb7cf46999147a82a163c71c6d9450d44c31a7d95fbca3e6a9b7b660613a983049702021-06-15 1:15:04165 days 21 hrs ago PancakeSwap: Router v20x4666280a2ccefe83e63744761e4ff60e00663ee05.230582677865571427 BNB
0xd5293ca95b18e7c666cf8e72fa9419aa54f954623c9056d1ae723d0ef6f3135183049632021-06-15 1:14:43165 days 21 hrs ago PancakeSwap: Router v20x4666280a2ccefe83e63744761e4ff60e00663ee012.915922203247307847 BNB
0x457f287d6e3661b362338194673158145f91e7bb5e73bba2ebd0d580f603f2fe79509072021-06-02 16:52:11178 days 6 hrs ago PancakeSwap: Router v20x4666280a2ccefe83e63744761e4ff60e00663ee01.82198334707336081 BNB
[ Download CSV Export 
Loading

Contract Name:
0 BNB

Compiler Version
0

Optimization Enabled:
0 BNB

Other Settings:
-NA-
Block Transaction Gas Used Reward
Age Block Fee Address BC Fee Address Voting Power Jailed Incoming
Block Uncle Number Difficulty Gas Used Reward
Loading
Loading
Make sure to use the "Vote Down" button for any spammy posts, and the "Vote Up" for interesting conversations.